Weather in New Orleans

United States     29°56′53″N   90°04′13″W
temp.,
°C
wind,
m/s
gust,
m/s
humid.,
%
clouds,
%
prec.,
mm/h
press.,
hPa
HPBL,
m
26 may, thu
thu2601:00+24ssw5128642 9.4 1013507
04:00+23sw5118995 5.4 1013392
07:00+22w469258 8.4 1014401
10:00+22wsw359237 6.9 1015287
13:00+27nw56490 7.0 10151050
16:00+29wnw35350 0.0 10131414
19:00+27w24440 0.0 1013242
22:00+24sw34530 0.0 101476
27 may, fri
fri2701:00+22sw36590 0.0 1014123
04:00+21w36640 0.0 1014179
07:00+22w35700 0.0 1015173
10:00+27w47500 0.0 1015715
13:00+29wnw68460 0.0 10151508
16:00+30nw58400 0.0 10131958
19:00+28nw58460 0.0 1013918
22:00+25nne47580 0.0 1014258
28 may, sat
sat2801:00+22nne34650 0.0 1014125
04:00+21ne23710 0.0 101388
07:00+21ne23710 0.0 1014121
10:00+26ne23480 0.0 1015752
13:00+29n33360 0.0 10141244
16:00+31nnw33330 0.0 10121399
19:00+29wnw22420 0.0 1012358
22:00+24sse48620 0.0 1013249
29 may, sun
sun2901:00+23ssw36670 0.0 1013177
04:00+23sw24680 0.0 101297
07:00+23sse12670 0.0 101379
10:00+29se23460 0.0 10151039
13:00+31e54360 0.0 10142047
16:00+31e64360 0.0 10131893
19:00+28ese56430 0.0 1013656
22:00+23se37670 0.0 1015267
30 may, mon
mon3001:00+23s37740 0.0 1015249
04:00+22se37780 0.0 1015327
07:00+23se37740 0.0 1016226
10:00+29sse47480 0.0 10171736
13:00+33sse47360 0.0 10162408
16:00+32se664566 0.0 10152401
19:00+28ese56611 0.3 1016991
22:00+25ese48820 0.0 1018446